RYR59SQ LEPA-EDDG

Flight info

Callsign RYR59SQ
Flight time 2h 22m
Altitude 38000
Route GALAT DCT RODRA DCT VNV DCT ANTON DCT BISES DCT SADUR DCT CAVES DCT LATRO DCT OLOXO DCT OKABI DCT TOU DCT ADABI DCT BOKNO DCT DIBES DCT VIQAQ DCT TSU DCT OQQAL DCT RANUX/N0445F370 DCT VALEK DCT LUTAX DCT DIK T856 DEPOK/N0385F230 T856 QATJA N853 HMM HMM1A
Aircraft A320/M-SDE3FGHIRWY/LB1

Departure

Time 2026-04-22 10:46
Airport Palma de Mallorca Airport (LEPA)

Arrival

Time 2026-04-22 13:08
Airport Münster Osnabrück Airport (EDDG)
Time Latitude Longitude Altitude Speed Heading
2026-04-22 10:03 39.54865 2.73534 39 ft 0 kts 48°
2026-04-22 10:13 39.54865 2.73533 38 ft 0 kts 48°
2026-04-22 10:35 39.54851 2.73513 38 ft 4 kts 41°
2026-04-22 10:35 39.54833 2.73498 37 ft 3 kts 23°
2026-04-22 10:35 39.54810 2.73493 38 ft 4 kts 336°
2026-04-22 10:35 39.54789 2.73513 38 ft 4 kts 317°
2026-04-22 10:36 39.54777 2.73525 36 ft 1 kts 329°
2026-04-22 10:36 39.54776 2.73527 36 ft 0 kts 329°
2026-04-22 10:39 39.54779 2.73520 35 ft 3 kts 307°
2026-04-22 10:39 39.54756 2.73475 38 ft 9 kts 205°
2026-04-22 10:39 39.54698 2.73496 37 ft 8 kts 150°
2026-04-22 10:39 39.54653 2.73531 38 ft 8 kts 148°
2026-04-22 10:40 39.54629 2.73595 38 ft 11 kts 78°
2026-04-22 10:40 39.54669 2.73690 38 ft 11 kts 61°
2026-04-22 10:40 39.54709 2.73778 38 ft 12 kts 58°
2026-04-22 10:40 39.54754 2.73873 38 ft 12 kts 57°
2026-04-22 10:41 39.54796 2.73958 38 ft 10 kts 57°
2026-04-22 10:41 39.54850 2.73993 38 ft 9 kts 345°
2026-04-22 10:41 39.54917 2.73961 37 ft 10 kts 10°
2026-04-22 10:41 39.54963 2.74008 38 ft 8 kts 11°
2026-04-22 10:42 39.55034 2.73961 38 ft 19 kts 328°
2026-04-22 10:42 39.55167 2.73858 38 ft 24 kts 329°
2026-04-22 10:42 39.55311 2.73744 38 ft 25 kts 329°
2026-04-22 10:42 39.55464 2.73623 38 ft 26 kts 328°
2026-04-22 10:43 39.55592 2.73521 38 ft 14 kts 328°
2026-04-22 10:43 39.55657 2.73511 37 ft 9 kts 37°
2026-04-22 10:43 39.55720 2.73639 38 ft 23 kts 58°
2026-04-22 10:43 39.55805 2.73818 38 ft 24 kts 58°
2026-04-22 10:44 39.55896 2.74010 37 ft 26 kts 58°
2026-04-22 10:44 39.55990 2.74208 38 ft 21 kts 56°
2026-04-22 10:44 39.56091 2.74302 38 ft 17 kts 28°
2026-04-22 10:44 39.56182 2.74346 38 ft 12 kts
2026-04-22 10:45 39.56230 2.74288 38 ft 9 kts 273°
2026-04-22 10:45 39.56187 2.74181 38 ft 32 kts 239°
2026-04-22 10:45 39.55934 2.73646 38 ft 103 kts 238°
2026-04-22 10:45 39.55457 2.72638 42 ft 157 kts 238°
2026-04-22 10:46 39.54867 2.71391 580 ft 163 kts 237°
2026-04-22 10:46 39.54260 2.70159 1316 ft 161 kts 237°
2026-04-22 10:46 39.53644 2.68938 1975 ft 166 kts 237°
2026-04-22 10:46 39.52970 2.67608 2311 ft 188 kts 237°
2026-04-22 10:47 39.52210 2.66109 2645 ft 209 kts 237°
2026-04-22 10:47 39.51395 2.64501 3236 ft 217 kts 236°
2026-04-22 10:47 39.50559 2.62853 3962 ft 219 kts 236°
2026-04-22 10:47 39.49714 2.61194 4697 ft 222 kts 236°
2026-04-22 10:48 39.48856 2.59508 5374 ft 226 kts 237°
2026-04-22 10:48 39.47984 2.57801 6057 ft 229 kts 237°
2026-04-22 10:48 39.47099 2.56070 6736 ft 232 kts 238°
2026-04-22 10:48 39.46204 2.54320 7402 ft 234 kts 238°
2026-04-22 10:49 39.45313 2.52542 8076 ft 237 kts 244°
2026-04-22 10:49 39.44927 2.50449 8435 ft 249 kts 279°
2026-04-22 10:49 39.45589 2.48389 9020 ft 253 kts 310°
2026-04-22 10:49 39.46932 2.46871 9503 ft 269 kts 323°
2026-04-22 10:50 39.48476 2.45438 10167 ft 277 kts 324°
2026-04-22 10:50 39.50113 2.43957 10476 ft 299 kts 324°
2026-04-22 10:50 39.51883 2.42361 10754 ft 320 kts 324°
2026-04-22 10:50 39.53732 2.40688 11354 ft 327 kts 324°
2026-04-22 10:51 39.55643 2.39044 12086 ft 332 kts 328°
2026-04-22 10:51 39.57640 2.37510 12843 ft 335 kts 328°
2026-04-22 10:51 39.59674 2.35995 13584 ft 339 kts 328°
2026-04-22 10:51 39.61737 2.34475 14260 ft 343 kts 329°
2026-04-22 10:52 39.63823 2.32942 14892 ft 346 kts 328°
2026-04-22 10:52 39.65929 2.31389 15526 ft 350 kts 328°
2026-04-22 10:52 39.68051 2.29813 16151 ft 353 kts 328°
2026-04-22 10:52 39.70189 2.28219 16764 ft 357 kts 328°
2026-04-22 10:53 39.72354 2.26600 17341 ft 361 kts 328°
2026-04-22 10:53 39.74544 2.24962 17940 ft 365 kts 328°
2026-04-22 10:53 39.76755 2.23304 18504 ft 368 kts 328°
2026-04-22 10:53 39.78985 2.21630 19043 ft 372 kts 327°
2026-04-22 10:54 39.81237 2.19937 19560 ft 376 kts 327°
2026-04-22 10:54 39.83507 2.18228 20087 ft 379 kts 327°
2026-04-22 10:54 39.85797 2.16499 20617 ft 382 kts 327°
2026-04-22 10:54 39.88107 2.14754 21143 ft 386 kts 327°
2026-04-22 10:55 39.90436 2.12996 21669 ft 389 kts 327°
2026-04-22 10:55 39.92789 2.11222 22182 ft 392 kts 327°
2026-04-22 10:55 39.95164 2.09435 22682 ft 396 kts 327°
2026-04-22 10:55 39.97559 2.07632 23172 ft 399 kts 327°
2026-04-22 10:56 39.99971 2.05814 23639 ft 402 kts 327°
2026-04-22 10:56 40.02402 2.03982 24034 ft 405 kts 327°
2026-04-22 10:56 40.04841 2.02140 24439 ft 407 kts 327°
2026-04-22 10:56 40.07300 2.00276 24853 ft 409 kts 327°
2026-04-22 10:57 40.09763 1.98408 25251 ft 410 kts 327°
2026-04-22 10:57 40.12238 1.96530 25632 ft 412 kts 327°
2026-04-22 10:57 40.14792 1.94796 26004 ft 417 kts 334°
2026-04-22 10:57 40.17563 1.93611 26377 ft 422 kts 344°
2026-04-22 10:58 40.20464 1.92905 26741 ft 425 kts 347°
2026-04-22 10:58 40.23383 1.92233 27105 ft 427 kts 347°
2026-04-22 10:58 40.26314 1.91555 27484 ft 428 kts 347°
2026-04-22 10:58 40.29256 1.90875 27844 ft 430 kts 347°
2026-04-22 10:59 40.32206 1.90189 28226 ft 431 kts 347°
2026-04-22 10:59 40.35161 1.89499 28592 ft 432 kts 347°
2026-04-22 10:59 40.38126 1.88807 28921 ft 433 kts 347°
2026-04-22 10:59 40.41097 1.88114 29253 ft 435 kts 347°
2026-04-22 11:00 40.44079 1.87418 29558 ft 436 kts 347°
2026-04-22 11:00 40.47072 1.86720 29868 ft 438 kts 347°
2026-04-22 11:00 40.50075 1.86021 30146 ft 439 kts 347°
2026-04-22 11:00 40.53086 1.85320 30390 ft 440 kts 347°
2026-04-22 11:01 40.56106 1.84615 30630 ft 441 kts 347°
2026-04-22 11:01 40.59090 1.83915 30861 ft 442 kts 347°
2026-04-22 11:01 40.62154 1.83197 31125 ft 441 kts 347°
2026-04-22 11:01 40.65173 1.82491 31456 ft 439 kts 347°
2026-04-22 11:02 40.68141 1.81795 31780 ft 438 kts 347°
2026-04-22 11:02 40.71132 1.81089 32118 ft 436 kts 347°
2026-04-22 11:02 40.74109 1.80383 32447 ft 434 kts 347°
2026-04-22 11:02 40.77077 1.79681 32777 ft 432 kts 347°
2026-04-22 11:03 40.80031 1.78983 33106 ft 431 kts 347°
2026-04-22 11:03 40.82976 1.78290 33435 ft 429 kts 347°
2026-04-22 11:03 40.85910 1.77597 33764 ft 427 kts 347°
2026-04-22 11:03 40.88830 1.76904 34079 ft 426 kts 347°
2026-04-22 11:04 40.91739 1.76214 34382 ft 424 kts 347°
2026-04-22 11:04 40.94635 1.75525 34680 ft 422 kts 346°
2026-04-22 11:04 40.97515 1.74835 34961 ft 420 kts 346°
2026-04-22 11:04 41.00391 1.74147 35222 ft 419 kts 347°
2026-04-22 11:05 41.03251 1.73467 35479 ft 418 kts 347°
2026-04-22 11:05 41.05182 1.73012 35637 ft 417 kts 347°
2026-04-22 11:05 41.08049 1.72431 35868 ft 417 kts 349°
2026-04-22 11:05 41.10926 1.71963 36097 ft 416 kts 350°
2026-04-22 11:06 41.13802 1.71563 36319 ft 415 kts 351°
2026-04-22 11:06 41.16676 1.71184 36540 ft 414 kts 351°
2026-04-22 11:06 41.19540 1.70796 36750 ft 413 kts 351°
2026-04-22 11:06 41.22397 1.70390 36954 ft 412 kts 350°
2026-04-22 11:07 41.25247 1.69968 37145 ft 412 kts 350°
2026-04-22 11:07 41.28092 1.69532 37339 ft 411 kts 350°
2026-04-22 11:07 41.30928 1.69087 37518 ft 410 kts 350°
2026-04-22 11:07 41.33759 1.68636 37714 ft 410 kts 350°
2026-04-22 11:08 41.36584 1.68185 37912 ft 409 kts 350°
2026-04-22 11:08 41.42233 1.67302 37988 ft 408 kts 350°
2026-04-22 11:09 41.47880 1.66428 37986 ft 408 kts 350°
2026-04-22 11:09 41.53527 1.65555 37983 ft 408 kts 350°
2026-04-22 11:10 41.59167 1.64665 37980 ft 408 kts 350°
2026-04-22 11:10 41.64771 1.63780 37978 ft 408 kts 350°
2026-04-22 11:11 41.70412 1.62893 37982 ft 408 kts 350°
2026-04-22 11:11 41.76056 1.62002 37978 ft 408 kts 350°
2026-04-22 11:12 41.81703 1.61111 37988 ft 409 kts 350°
2026-04-22 11:12 41.87355 1.60218 37990 ft 409 kts 350°
2026-04-22 11:13 41.93007 1.59325 37988 ft 409 kts 350°
2026-04-22 11:13 41.98699 1.58428 37999 ft 409 kts 350°
2026-04-22 11:14 42.04320 1.57534 37996 ft 409 kts 350°
2026-04-22 11:14 42.09971 1.56635 37993 ft 409 kts 350°
2026-04-22 11:15 42.15615 1.55735 37975 ft 408 kts 350°
2026-04-22 11:15 42.21268 1.54837 38036 ft 409 kts 350°
2026-04-22 11:16 42.26923 1.53931 38044 ft 408 kts 350°
2026-04-22 11:16 42.32565 1.53025 38059 ft 409 kts 350°
2026-04-22 11:17 42.38183 1.52128 38029 ft 410 kts 350°
2026-04-22 11:17 42.43848 1.51231 38027 ft 410 kts 350°
2026-04-22 11:18 42.49525 1.50312 38027 ft 411 kts 350°
2026-04-22 11:18 42.55201 1.49398 38012 ft 411 kts 350°
2026-04-22 11:19 42.60889 1.48482 38032 ft 412 kts 350°
2026-04-22 11:19 42.66578 1.47563 38022 ft 412 kts 350°
2026-04-22 11:20 42.72273 1.46647 38019 ft 412 kts 350°
2026-04-22 11:20 42.77958 1.45729 37992 ft 411 kts 350°
2026-04-22 11:21 42.83643 1.44812 38000 ft 412 kts 350°
2026-04-22 11:21 42.89329 1.43888 38001 ft 411 kts 350°
2026-04-22 11:22 42.95012 1.42971 37990 ft 411 kts 350°
2026-04-22 11:22 43.00698 1.42053 38000 ft 411 kts 350°
2026-04-22 11:23 43.06394 1.41123 37969 ft 412 kts 349°
2026-04-22 11:23 43.12066 1.40194 37959 ft 413 kts 349°
2026-04-22 11:24 43.17777 1.39263 37963 ft 414 kts 349°
2026-04-22 11:24 43.23501 1.38330 37970 ft 414 kts 349°
2026-04-22 11:25 43.29231 1.37391 37968 ft 415 kts 349°
2026-04-22 11:25 43.34961 1.36452 37973 ft 415 kts 349°
2026-04-22 11:26 43.40696 1.35509 37984 ft 415 kts 349°
2026-04-22 11:26 43.46428 1.34563 37981 ft 415 kts 349°
2026-04-22 11:27 43.52165 1.33607 37980 ft 415 kts 349°
2026-04-22 11:27 43.57897 1.32662 37979 ft 415 kts 349°
2026-04-22 11:28 43.63630 1.31718 37990 ft 415 kts 349°
2026-04-22 11:28 43.69359 1.30730 37988 ft 414 kts 348°
2026-04-22 11:29 43.75024 1.29351 37985 ft 413 kts 345°
2026-04-22 11:29 43.80659 1.27792 37983 ft 413 kts 345°
2026-04-22 11:30 43.86305 1.26270 37990 ft 413 kts 346°
2026-04-22 11:30 43.91959 1.24806 37986 ft 413 kts 346°
2026-04-22 11:31 43.97615 1.23355 37983 ft 413 kts 346°
2026-04-22 11:31 44.03229 1.21902 37987 ft 413 kts 346°
2026-04-22 11:32 44.08884 1.20432 37984 ft 413 kts 346°
2026-04-22 11:32 44.14529 1.18946 37976 ft 413 kts 346°
2026-04-22 11:33 44.20171 1.17464 37973 ft 413 kts 346°
2026-04-22 11:33 44.25817 1.15989 37983 ft 413 kts 346°
2026-04-22 11:34 44.31478 1.14512 37969 ft 413 kts 346°
2026-04-22 11:34 44.37126 1.13035 37963 ft 414 kts 346°
2026-04-22 11:35 44.42787 1.11544 37972 ft 414 kts 345°
2026-04-22 11:35 44.48453 1.10042 37971 ft 414 kts 345°
2026-04-22 11:36 44.54117 1.08539 37972 ft 414 kts 345°
2026-04-22 11:36 44.59784 1.07036 37968 ft 415 kts 345°
2026-04-22 11:37 44.65454 1.05527 37971 ft 415 kts 345°
2026-04-22 11:37 44.71134 1.04015 37972 ft 415 kts 345°
2026-04-22 11:38 44.76802 1.02510 37975 ft 415 kts 345°
2026-04-22 11:38 44.85310 1.00223 37974 ft 415 kts 345°
2026-04-22 11:39 44.90989 0.98703 37972 ft 415 kts 345°
2026-04-22 11:39 44.96666 0.97192 37979 ft 415 kts 345°
2026-04-22 11:40 45.02312 0.95675 37988 ft 415 kts 345°
2026-04-22 11:40 45.07990 0.94138 37986 ft 415 kts 345°
2026-04-22 11:41 45.13668 0.92606 37990 ft 415 kts 345°
2026-04-22 11:41 45.19348 0.91073 38005 ft 415 kts 346°
2026-04-22 11:42 45.25025 0.89533 38005 ft 415 kts 346°
2026-04-22 11:42 45.30698 0.87990 37994 ft 415 kts 346°
2026-04-22 11:43 45.36368 0.86444 37989 ft 415 kts 346°
2026-04-22 11:43 45.42032 0.84894 37989 ft 414 kts 346°
2026-04-22 11:44 45.47700 0.83349 37988 ft 415 kts 346°
2026-04-22 11:44 45.53363 0.81804 37987 ft 415 kts 345°
2026-04-22 11:45 45.59033 0.80249 38004 ft 415 kts 346°
2026-04-22 11:45 45.64707 0.78690 38006 ft 415 kts 345°
2026-04-22 11:46 45.70381 0.77114 37992 ft 416 kts 345°
2026-04-22 11:46 45.76061 0.75536 37990 ft 416 kts 345°
2026-04-22 11:47 45.81750 0.73972 38000 ft 416 kts 345°
2026-04-22 11:47 45.87437 0.72401 38005 ft 416 kts 345°
2026-04-22 11:48 45.92168 0.71091 38008 ft 417 kts 345°
2026-04-22 11:48 45.97860 0.69501 38024 ft 417 kts 345°
2026-04-22 11:49 46.03560 0.67906 38026 ft 417 kts 345°
2026-04-22 11:49 46.09264 0.66319 38029 ft 417 kts 345°
2026-04-22 11:50 46.14966 0.64729 38029 ft 417 kts 345°
2026-04-22 11:50 46.20663 0.63120 38041 ft 417 kts 345°
2026-04-22 11:51 46.26360 0.61513 38041 ft 417 kts 345°
2026-04-22 11:51 46.32058 0.59906 38026 ft 417 kts 345°
2026-04-22 11:52 46.37749 0.58291 38050 ft 417 kts 345°
2026-04-22 11:52 46.43439 0.56676 38063 ft 417 kts 345°
2026-04-22 11:53 46.49129 0.55070 38060 ft 417 kts 345°
2026-04-22 11:53 46.54851 0.53671 38063 ft 420 kts 353°
2026-04-22 11:54 46.60707 0.54572 38076 ft 429 kts
2026-04-22 11:54 46.66526 0.56502 38063 ft 429 kts
2026-04-22 11:55 46.72346 0.58426 38061 ft 429 kts
2026-04-22 11:55 46.78167 0.60341 38057 ft 429 kts
2026-04-22 11:56 46.83988 0.62258 38059 ft 429 kts
2026-04-22 11:56 46.89807 0.64195 38054 ft 429 kts
2026-04-22 11:57 46.95625 0.66141 38059 ft 429 kts
2026-04-22 11:57 47.01445 0.68078 38072 ft 429 kts
2026-04-22 11:58 47.07050 0.71236 38068 ft 439 kts 26°
2026-04-22 11:58 47.12278 0.75901 38072 ft 440 kts 26°
2026-04-22 11:59 47.17509 0.80572 38077 ft 440 kts 26°
2026-04-22 11:59 47.22738 0.85241 38108 ft 439 kts 26°
2026-04-22 12:00 47.27954 0.89907 38104 ft 438 kts 26°
2026-04-22 12:00 47.33154 0.94581 38102 ft 437 kts 26°
2026-04-22 12:01 47.38345 0.99258 38119 ft 437 kts 26°
2026-04-22 12:01 47.43527 1.03931 38108 ft 436 kts 26°
2026-04-22 12:02 47.48701 1.08617 38104 ft 436 kts 26°
2026-04-22 12:02 47.53890 1.13129 38098 ft 434 kts 23°
2026-04-22 12:03 47.59230 1.17260 38120 ft 433 kts 21°
2026-04-22 12:03 47.64604 1.21306 38119 ft 433 kts 22°
2026-04-22 12:04 47.69946 1.25432 38113 ft 433 kts 22°
2026-04-22 12:04 47.75279 1.29639 38130 ft 432 kts 22°
2026-04-22 12:05 47.80586 1.33842 38152 ft 432 kts 22°
2026-04-22 12:05 47.85885 1.38042 38147 ft 431 kts 22°
2026-04-22 12:06 47.91171 1.42233 38150 ft 431 kts 22°
2026-04-22 12:06 47.96462 1.46428 38148 ft 430 kts 22°
2026-04-22 12:07 48.01746 1.50616 38153 ft 430 kts 22°
2026-04-22 12:07 48.07027 1.54818 38149 ft 430 kts 22°
2026-04-22 12:08 48.12271 1.59001 38143 ft 430 kts 22°
2026-04-22 12:08 48.17545 1.63239 38143 ft 430 kts 22°
2026-04-22 12:09 48.22822 1.67487 38163 ft 430 kts 23°
2026-04-22 12:09 48.28100 1.71729 38179 ft 431 kts 23°
2026-04-22 12:10 48.33383 1.75981 38177 ft 431 kts 23°
2026-04-22 12:10 48.38663 1.80248 38182 ft 430 kts 23°
2026-04-22 12:11 48.43940 1.84528 38196 ft 430 kts 23°
2026-04-22 12:11 48.49212 1.88819 38194 ft 430 kts 23°
2026-04-22 12:12 48.54482 1.93111 38193 ft 430 kts 23°
2026-04-22 12:12 48.59752 1.97409 38203 ft 430 kts 23°
2026-04-22 12:13 48.65014 2.01721 38217 ft 430 kts 23°
2026-04-22 12:13 48.70265 2.06112 38204 ft 434 kts 28°
2026-04-22 12:14 48.72654 2.08946 38199 ft 440 kts 39°
2026-04-22 12:14 48.74689 2.12462 38197 ft 448 kts 50°
2026-04-22 12:14 48.76264 2.16503 38192 ft 455 kts 61°
2026-04-22 12:14 48.77348 2.21040 38203 ft 461 kts 70°
2026-04-22 12:15 48.79041 2.30432 38184 ft 463 kts 70°
2026-04-22 12:15 48.80724 2.39873 38184 ft 464 kts 71°
2026-04-22 12:16 48.82409 2.49341 38191 ft 465 kts 70°
2026-04-22 12:16 48.84096 2.58827 38217 ft 466 kts 71°
2026-04-22 12:17 48.85757 2.68338 38237 ft 466 kts 71°
2026-04-22 12:17 48.87420 2.77850 38234 ft 466 kts 71°
2026-04-22 12:18 48.89078 2.87362 38229 ft 466 kts 71°
2026-04-22 12:18 48.90739 2.96872 38228 ft 465 kts 71°
2026-04-22 12:19 48.92389 3.06389 38229 ft 465 kts 71°
2026-04-22 12:19 48.94011 3.15897 38251 ft 464 kts 71°
2026-04-22 12:20 48.95624 3.25381 38248 ft 462 kts 71°
2026-04-22 12:20 48.97232 3.34841 38245 ft 461 kts 71°
2026-04-22 12:21 48.98826 3.44283 38246 ft 460 kts 71°
2026-04-22 12:21 49.00411 3.53713 38262 ft 459 kts 71°
2026-04-22 12:22 49.01987 3.63156 38244 ft 460 kts 71°
2026-04-22 12:22 49.03555 3.72616 38257 ft 460 kts 71°
2026-04-22 12:23 49.05106 3.82005 38255 ft 460 kts 71°
2026-04-22 12:23 49.06665 3.91457 38250 ft 460 kts 71°
2026-04-22 12:24 49.08217 4.00974 38258 ft 459 kts 71°
2026-04-22 12:24 49.09752 4.10429 38255 ft 459 kts 71°
2026-04-22 12:25 49.11268 4.19833 38254 ft 459 kts 72°
2026-04-22 12:25 49.12789 4.29305 38261 ft 460 kts 72°
2026-04-22 12:26 49.14552 4.38644 38259 ft 454 kts 63°
2026-04-22 12:26 49.16981 4.47541 38270 ft 453 kts 63°
2026-04-22 12:27 49.19395 4.56437 38265 ft 453 kts 63°
2026-04-22 12:27 49.21793 4.65342 38272 ft 452 kts 63°
2026-04-22 12:28 49.24183 4.74231 38266 ft 452 kts 63°
2026-04-22 12:28 49.26574 4.83126 38264 ft 451 kts 63°
2026-04-22 12:29 49.28946 4.92032 38284 ft 451 kts 63°
2026-04-22 12:29 49.31307 5.00924 38270 ft 450 kts 63°
2026-04-22 12:30 49.34436 5.12753 38270 ft 449 kts 64°
2026-04-22 12:31 49.36773 5.21644 38269 ft 449 kts 64°
2026-04-22 12:31 49.39106 5.30541 38265 ft 449 kts 64°
2026-04-22 12:32 49.41428 5.39428 38265 ft 447 kts 64°
2026-04-22 12:32 49.44890 5.52741 38264 ft 446 kts 64°
2026-04-22 12:33 49.47185 5.61596 38266 ft 446 kts 64°
2026-04-22 12:33 49.49476 5.70456 38271 ft 445 kts 62°
2026-04-22 12:34 49.52735 5.78299 38272 ft 434 kts 43°
2026-04-22 12:34 49.57329 5.84211 38295 ft 419 kts 31°
2026-04-22 12:35 49.59703 5.86670 38290 ft 404 kts 30°
2026-04-22 12:35 49.62018 5.88932 38297 ft 396 kts 28°
2026-04-22 12:35 49.66711 5.93426 38300 ft 394 kts 29°
2026-04-22 12:36 49.71299 5.97942 38300 ft 394 kts 30°
2026-04-22 12:36 49.75883 6.02575 38302 ft 394 kts 30°
2026-04-22 12:37 49.80495 6.07248 38302 ft 394 kts 30°
2026-04-22 12:37 49.85081 6.11886 38299 ft 394 kts 29°
2026-04-22 12:38 49.89957 6.15650 38306 ft 391 kts 22°
2026-04-22 12:38 49.94919 6.19125 38308 ft 391 kts 22°
2026-04-22 12:39 50.02334 6.24459 38310 ft 391 kts 23°
2026-04-22 12:40 50.07213 6.28070 38321 ft 391 kts 23°
2026-04-22 12:40 50.12127 6.31692 38321 ft 391 kts 23°
2026-04-22 12:41 50.17065 6.35326 38332 ft 397 kts 23°
2026-04-22 12:41 50.22131 6.39059 38336 ft 408 kts 23°
2026-04-22 12:42 50.27329 6.42894 38343 ft 418 kts 24°
2026-04-22 12:42 50.32643 6.46827 38366 ft 427 kts 24°
2026-04-22 12:43 50.37878 6.51278 38377 ft 431 kts 32°
2026-04-22 12:43 50.42876 6.56485 38386 ft 431 kts 32°
2026-04-22 12:44 50.47880 6.61695 38390 ft 431 kts 32°
2026-04-22 12:44 50.52866 6.66900 38398 ft 430 kts 32°
2026-04-22 12:45 50.57843 6.72107 38397 ft 430 kts 32°
2026-04-22 12:45 50.62819 6.77328 38414 ft 430 kts 32°
2026-04-22 12:46 50.67833 6.82422 38099 ft 426 kts 26°
2026-04-22 12:46 50.70533 6.84259 37592 ft 420 kts 18°
2026-04-22 12:46 50.73358 6.85390 36925 ft 419 kts
2026-04-22 12:46 50.76252 6.85795 36306 ft 417 kts
2026-04-22 12:47 50.79148 6.85610 35690 ft 416 kts 358°
2026-04-22 12:47 50.82036 6.85372 35087 ft 415 kts 358°
2026-04-22 12:47 50.84910 6.85143 34498 ft 413 kts 358°
2026-04-22 12:47 50.87777 6.84921 33830 ft 411 kts 358°
2026-04-22 12:48 50.90632 6.84705 33144 ft 410 kts 358°
2026-04-22 12:48 50.93472 6.84382 32476 ft 408 kts 356°
2026-04-22 12:48 50.96294 6.83977 31821 ft 406 kts 358°
2026-04-22 12:48 50.99107 6.83943 31191 ft 403 kts
2026-04-22 12:49 51.01906 6.84094 30570 ft 402 kts
2026-04-22 12:49 51.04681 6.84443 29866 ft 398 kts 11°
2026-04-22 12:49 51.07344 6.85548 29157 ft 395 kts 21°
2026-04-22 12:49 51.09826 6.87365 28458 ft 391 kts 31°
2026-04-22 12:50 51.12065 6.89786 27778 ft 389 kts 40°
2026-04-22 12:50 51.14011 6.92746 27101 ft 386 kts 49°
2026-04-22 12:50 51.15659 6.96103 26451 ft 383 kts 53°
2026-04-22 12:50 51.17233 6.99445 25825 ft 381 kts 53°
2026-04-22 12:51 51.18838 7.02852 25196 ft 378 kts 53°
2026-04-22 12:51 51.20404 7.06185 24543 ft 372 kts 53°
2026-04-22 12:51 51.21939 7.09461 23817 ft 366 kts 53°
2026-04-22 12:51 51.23452 7.12697 22980 ft 362 kts 53°
2026-04-22 12:52 51.24928 7.15855 22195 ft 358 kts 53°
2026-04-22 12:52 51.26408 7.19029 21403 ft 355 kts 53°
2026-04-22 12:52 51.27872 7.22170 20629 ft 351 kts 53°
2026-04-22 12:52 51.29324 7.25290 19875 ft 348 kts 53°
2026-04-22 12:53 51.30761 7.28383 19143 ft 345 kts 54°
2026-04-22 12:53 51.32186 7.31457 18391 ft 343 kts 54°
2026-04-22 12:53 51.33701 7.34372 17593 ft 341 kts 43°
2026-04-22 12:53 51.35679 7.36431 17043 ft 342 kts 25°
2026-04-22 12:54 51.37990 7.37331 16518 ft 346 kts
2026-04-22 12:54 51.40389 7.36884 16010 ft 351 kts 348°
2026-04-22 12:54 51.42732 7.35818 15502 ft 349 kts 348°
2026-04-22 12:54 51.45062 7.34744 15010 ft 348 kts 348°
2026-04-22 12:55 51.47384 7.33673 14562 ft 345 kts 347°
2026-04-22 12:55 51.49676 7.32618 14204 ft 341 kts 348°
2026-04-22 12:55 51.51940 7.31580 13796 ft 336 kts 348°
2026-04-22 12:55 51.54172 7.30557 13384 ft 332 kts 348°
2026-04-22 12:56 51.56376 7.29545 12991 ft 327 kts 348°
2026-04-22 12:56 51.58553 7.28547 12607 ft 323 kts 347°
2026-04-22 12:56 51.60702 7.27560 12212 ft 319 kts 347°
2026-04-22 12:56 51.62827 7.26579 11835 ft 316 kts 347°
2026-04-22 12:57 51.64927 7.25609 11450 ft 312 kts 347°
2026-04-22 12:57 51.67008 7.24649 11071 ft 310 kts 347°
2026-04-22 12:57 51.69068 7.23703 10710 ft 307 kts 347°
2026-04-22 12:57 51.71098 7.22772 10516 ft 298 kts 347°
2026-04-22 12:58 51.73059 7.21870 10319 ft 290 kts 347°
2026-04-22 12:58 51.74993 7.20980 9958 ft 288 kts 347°
2026-04-22 12:58 51.76911 7.20093 9564 ft 287 kts 347°
2026-04-22 12:58 51.78825 7.19210 9173 ft 285 kts 347°
2026-04-22 12:59 51.80748 7.18636 8771 ft 278 kts
2026-04-22 12:59 51.82626 7.19159 8359 ft 272 kts 21°
2026-04-22 12:59 51.84426 7.20093 7961 ft 271 kts 20°
2026-04-22 12:59 51.86214 7.21037 7560 ft 270 kts 21°
2026-04-22 13:00 51.87990 7.21982 7172 ft 268 kts 21°
2026-04-22 13:00 51.89755 7.22923 6788 ft 267 kts 21°
2026-04-22 13:00 51.91516 7.23858 6393 ft 266 kts 21°
2026-04-22 13:00 51.93269 7.24786 5967 ft 264 kts 21°
2026-04-22 13:01 51.95009 7.25711 5572 ft 262 kts 21°
2026-04-22 13:01 51.96741 7.26631 5151 ft 261 kts 21°
2026-04-22 13:01 51.98465 7.27545 4723 ft 260 kts 21°
2026-04-22 13:01 52.00161 7.28444 4508 ft 251 kts 21°
2026-04-22 13:02 52.01780 7.29301 4370 ft 240 kts 21°
2026-04-22 13:02 52.03328 7.30121 4229 ft 229 kts 21°
2026-04-22 13:02 52.04724 7.31226 4064 ft 220 kts 39°
2026-04-22 13:02 52.05742 7.32961 4006 ft 204 kts 59°
2026-04-22 13:03 52.06326 7.34990 3874 ft 196 kts 71°
2026-04-22 13:03 52.06775 7.37091 3615 ft 197 kts 71°
2026-04-22 13:03 52.07212 7.39133 3479 ft 190 kts 71°
2026-04-22 13:03 52.07642 7.41139 3371 ft 186 kts 70°
2026-04-22 13:04 52.08071 7.43141 3225 ft 187 kts 70°
2026-04-22 13:04 52.08499 7.45141 3002 ft 187 kts 70°
2026-04-22 13:04 52.08929 7.47152 2771 ft 189 kts 70°
2026-04-22 13:04 52.09355 7.49147 2514 ft 185 kts 70°
2026-04-22 13:05 52.09771 7.51097 2243 ft 180 kts 70°
2026-04-22 13:05 52.10175 7.52990 2001 ft 175 kts 69°
2026-04-22 13:05 52.10574 7.54860 1746 ft 174 kts 70°
2026-04-22 13:05 52.10953 7.56643 1515 ft 159 kts 70°
2026-04-22 13:06 52.11293 7.58243 1327 ft 141 kts 70°
2026-04-22 13:06 52.11603 7.59702 1132 ft 133 kts 69°
2026-04-22 13:06 52.11901 7.61104 957 ft 130 kts 70°
2026-04-22 13:06 52.12194 7.62486 788 ft 130 kts 69°
2026-04-22 13:07 52.12488 7.63871 634 ft 129 kts 70°
2026-04-22 13:07 52.12785 7.65268 417 ft 130 kts 70°
2026-04-22 13:07 52.13076 7.66656 241 ft 129 kts 70°
2026-04-22 13:07 52.13356 7.67972 168 ft 110 kts 71°
2026-04-22 13:08 52.13553 7.68902 167 ft 62 kts 71°
2026-04-22 13:08 52.13648 7.69357 169 ft 34 kts 71°
2026-04-22 13:08 52.13722 7.69702 168 ft 31 kts 71°
2026-04-22 13:08 52.13765 7.69908 168 ft 12 kts 72°
2026-04-22 13:09 52.13730 7.70018 168 ft 12 kts 156°
2026-04-22 13:09 52.13647 7.70016 168 ft 13 kts 200°
2026-04-22 13:09 52.13591 7.69911 168 ft 13 kts 252°
2026-04-22 13:09 52.13561 7.69764 168 ft 14 kts 251°
2026-04-22 13:10 52.13528 7.69609 168 ft 15 kts 251°
2026-04-22 13:10 52.13494 7.69446 168 ft 16 kts 251°
2026-04-22 13:10 52.13459 7.69285 168 ft 11 kts 250°
2026-04-22 13:10 52.13405 7.69236 168 ft 10 kts 163°
2026-04-22 13:11 52.13335 7.69276 168 ft 11 kts 161°
2026-04-22 13:11 52.13263 7.69316 168 ft 9 kts 161°
2026-04-22 13:11 52.13213 7.69269 168 ft 10 kts 245°
2026-04-22 13:11 52.13157 7.69222 168 ft 8 kts 198°
2026-04-22 13:12 52.13133 7.69210 168 ft 1 kts 197°
2026-04-22 13:12 52.13132 7.69210 168 ft 0 kts 197°